Weather History for Silver Bay, MN

Change the Weather History Date:

Wednesday, February 19, 2014

  Actual Average Record
Temperature  
Mean Temperature 32 °F -  
Max Temperature 42 °F 26 °F 78 °F (1997)
Min Temperature 21 °F 5 °F -11 °F (2008)
Degree Days  
Heating Degree Days 34    
Moisture  
Dew Point 21 °F    
Average Humidity 73    
Maximum Humidity 93    
Minimum Humidity 42    
Precipitation  
Precipitation 0.00 in - - ()
Sea Level Pressure  
Sea Level Pressure 29.65 in    
Wind  
Wind Speed 6 mph (West)    
Max Wind Speed 10 mph    
Max Gust Speed 21 mph    
Visibility 10 miles    
Events      
Averages and records for this station are not official NWS values.
T = Trace of Precipitation, MM = Missing Value Source: NWS Daily Summary

Daily Weather History Graph

Daily Weather History Graph

Search for Another Location

Airport:

Trip Planner

Search our weather history database for the weather conditions in past years. The results will help you decide how hot, cold, wet, or windy it might be!

Date:

Astronomy

Feb. 19, 2014 Rise Set
Actual Time 7:03 AM CST 5:35 PM CST
Civil Twilight 6:32 AM CST 6:07 PM CST
Nautical Twilight 5:57 AM CST 6:42 PM CST
Astronomical Twilight 5:21 AM CST 7:18 PM CST
Moon 10:52 PM CST (2/19) 8:49 AM CST (2/19)
Length of Visible Light 11h 34m
Length of Day
10h 32m
Waning Gibbous, 79% of the Moon is Illuminated
Feb 19
Waning Gibbous
Feb 22
Last Quarter
Mar 1
New
Mar 8
First Quarter
Mar 16
Full

Hourly Weather History & Observations

Time (CST) Temp. Windchill Dew Point Humidity Pressure Visibility Wind Dir Wind Speed Gust Speed Precip Events Conditions
12:13 AM 28.4 °F 22.2 °F 21.2 °F 74% 29.57 in 10.0 mi West 5.8 mph - N/A   Clear
12:33 AM 26.6 °F 19.1 °F 21.2 °F 80% 29.57 in 10.0 mi West 6.9 mph - N/A   Clear
12:53 AM 26.6 °F 19.1 °F 21.2 °F 80% 29.57 in 10.0 mi West 6.9 mph - N/A   Clear
1:13 AM 26.6 °F 16.8 °F 21.2 °F 80% 29.58 in 10.0 mi West 10.4 mph 17.3 mph N/A   Clear
1:33 AM 26.6 °F 17.5 °F 21.2 °F 80% 29.58 in 10.0 mi West 9.2 mph - N/A   Clear
1:53 AM 26.6 °F 19.1 °F 21.2 °F 80% 29.58 in 10.0 mi West 6.9 mph 17.3 mph N/A   Clear
2:13 AM 26.6 °F 17.5 °F 21.2 °F 80% 29.58 in 10.0 mi West 9.2 mph - N/A   Clear
2:33 AM 24.8 °F 15.3 °F 19.4 °F 80% 29.58 in 10.0 mi West 9.2 mph - N/A   Clear
2:53 AM 24.8 °F 16.1 °F 19.4 °F 80% 29.58 in 10.0 mi West 8.1 mph - N/A   Clear
3:13 AM 24.8 °F 15.3 °F 19.4 °F 80% 29.58 in 10.0 mi West 9.2 mph 16.1 mph N/A   Clear
3:33 AM 24.8 °F 17.9 °F 19.4 °F 80% 29.58 in 10.0 mi West 5.8 mph - N/A   Clear
3:53 AM 24.8 °F 16.9 °F 19.4 °F 80% 29.58 in 10.0 mi West 6.9 mph - N/A   Clear
4:13 AM 23.0 °F 15.8 °F 19.4 °F 86% 29.59 in 10.0 mi West 5.8 mph - N/A   Clear
4:33 AM 23.0 °F 17.0 °F 19.4 °F 86% 29.59 in 10.0 mi West 4.6 mph - N/A   Clear
4:53 AM 23.0 °F 14.7 °F 19.4 °F 86% 29.60 in 10.0 mi West 6.9 mph - N/A   Clear
5:13 AM 21.2 °F 11.7 °F 19.4 °F 93% 29.60 in 10.0 mi West 8.1 mph - N/A   Clear
5:33 AM 21.2 °F 13.6 °F 19.4 °F 93% 29.61 in 10.0 mi West 5.8 mph - N/A   Clear
5:53 AM 21.2 °F 14.9 °F 19.4 °F 93% 29.61 in 10.0 mi West 4.6 mph - N/A   Clear
6:13 AM 21.2 °F 13.6 °F 19.4 °F 93% 29.61 in 10.0 mi West 5.8 mph - N/A   Clear
6:33 AM 21.2 °F 12.6 °F 19.4 °F 93% 29.61 in 10.0 mi West 6.9 mph 17.3 mph N/A   Clear
6:53 AM 21.2 °F 11.7 °F 19.4 °F 93% 29.61 in 10.0 mi West 8.1 mph - N/A   Clear
7:13 AM 21.2 °F 13.6 °F 17.6 °F 86% 29.61 in 10.0 mi West 5.8 mph - N/A   Clear
7:33 AM 21.2 °F 12.6 °F 19.4 °F 93% 29.62 in 10.0 mi West 6.9 mph - N/A   Clear
7:53 AM 21.2 °F 12.6 °F 19.4 °F 93% 29.62 in 10.0 mi West 6.9 mph - N/A   Clear
8:13 AM 24.8 °F 16.9 °F 19.4 °F 80% 29.63 in 10.0 mi West 6.9 mph - N/A   Clear
8:33 AM 24.8 °F 17.9 °F 19.4 °F 80% 29.64 in 10.0 mi West 5.8 mph - N/A   Clear
8:53 AM 26.6 °F 21.2 °F 19.4 °F 74% 29.64 in 10.0 mi WNW 4.6 mph - N/A   Clear
9:13 AM 28.4 °F 22.2 °F 21.2 °F 74% 29.64 in 10.0 mi West 5.8 mph - N/A   Clear
9:33 AM 28.4 °F 19.7 °F 21.2 °F 74% 29.65 in 10.0 mi West 9.2 mph - N/A   Clear
9:53 AM 30.2 °F 25.4 °F 21.2 °F 69% 29.65 in 10.0 mi West 4.6 mph - N/A   Clear
10:13 AM 33.8 °F 30.8 °F 23.0 °F 65% 29.66 in 10.0 mi WSW 3.5 mph - N/A   Clear
10:33 AM 33.8 °F 26.4 °F 23.0 °F 65% 29.65 in 10.0 mi WSW 9.2 mph - N/A   Clear
10:53 AM 35.6 °F 31.7 °F 23.0 °F 60% 29.66 in 10.0 mi WSW 4.6 mph - N/A   Clear
11:13 AM 35.6 °F 29.2 °F 23.0 °F 60% 29.66 in 10.0 mi WSW 8.1 mph - N/A   Clear
11:33 AM 37.4 °F 30.8 °F 23.0 °F 56% 29.66 in 10.0 mi West 9.2 mph 16.1 mph N/A   Clear
11:53 AM 37.4 °F 32.8 °F 23.0 °F 56% 29.66 in 10.0 mi West 5.8 mph - N/A   Clear
12:13 PM 39.2 °F 37.0 °F 24.8 °F 56% 29.65 in 10.0 mi West 3.5 mph - N/A   Clear
12:33 PM 39.2 °F 34.2 °F 23.0 °F 52% 29.65 in 10.0 mi WSW 6.9 mph - N/A   Clear
12:53 PM 39.2 °F 33.6 °F 23.0 °F 52% 29.64 in 10.0 mi WSW 8.1 mph - N/A   Clear
1:13 PM 39.2 °F 33.6 °F 21.2 °F 49% 29.65 in 10.0 mi WSW 8.1 mph - N/A   Clear
1:33 PM 39.2 °F 33.6 °F 21.2 °F 49% 29.64 in 10.0 mi SW 8.1 mph - N/A   Clear
1:53 PM 41.0 °F 37.1 °F 21.2 °F 45% 29.65 in 10.0 mi West 5.8 mph - N/A   Clear
2:13 PM 42.8 °F 39.3 °F 21.2 °F 42% 29.65 in 10.0 mi SW 5.8 mph - N/A   Clear
2:33 PM 41.0 °F 34.7 °F 21.2 °F 45% 29.66 in 10.0 mi WSW 10.4 mph 20.7 mph N/A   Clear
2:53 PM 41.0 °F 35.2 °F 21.2 °F 45% 29.67 in 10.0 mi SW 9.2 mph - N/A   Clear
3:13 PM 41.0 °F 36.4 °F 21.2 °F 45% 29.67 in 10.0 mi WSW 6.9 mph - N/A   Clear
3:33 PM 41.0 °F 37.1 °F 21.2 °F 45% 29.68 in 10.0 mi WSW 5.8 mph - N/A   Clear
3:53 PM 41.0 °F 37.1 °F 21.2 °F 45% 29.68 in 10.0 mi SW 5.8 mph - N/A   Clear
4:13 PM 41.0 °F 39.0 °F 21.2 °F 45% 29.68 in 10.0 mi WSW 3.5 mph - N/A   Clear
4:33 PM 39.2 °F - 21.2 °F 49% 29.68 in 10.0 mi Calm Calm - N/A   Clear
4:53 PM 37.4 °F 34.9 °F 21.2 °F 52% 29.68 in 10.0 mi SW 3.5 mph - N/A   Clear
5:13 PM 37.4 °F - 21.2 °F 52% 29.68 in 10.0 mi Calm Calm - N/A   Clear
5:33 PM 33.8 °F 30.8 °F 21.2 °F 60% 29.69 in 10.0 mi SSW 3.5 mph - N/A   Clear
5:53 PM 30.2 °F - 21.2 °F 69% 29.70 in 10.0 mi Calm Calm - N/A   Clear
6:13 PM 28.4 °F - 21.2 °F 74% 29.70 in 10.0 mi Calm Calm - N/A   Clear
6:33 PM 28.4 °F - 23.0 °F 80% 29.70 in 10.0 mi Calm Calm - N/A   Clear
6:53 PM 26.6 °F - 21.2 °F 80% 29.71 in 10.0 mi Calm Calm - N/A   Clear
7:13 PM 26.6 °F - 21.2 °F 80% 29.71 in 10.0 mi Calm Calm - N/A   Clear
7:33 PM 24.8 °F - 21.2 °F 86% 29.71 in 10.0 mi Calm Calm - N/A   Clear
7:53 PM 24.8 °F - 19.4 °F 80% 29.71 in 10.0 mi Calm Calm - N/A   Clear
8:13 PM 24.8 °F - 19.4 °F 80% 29.71 in 10.0 mi Calm Calm - N/A   Clear
8:33 PM 24.8 °F - 21.2 °F 86% 29.72 in 10.0 mi Calm Calm - N/A   Scattered Clouds
8:53 PM 24.8 °F - 21.2 °F 86% 29.72 in 10.0 mi Calm Calm - N/A   Scattered Clouds
9:13 PM 24.8 °F - 19.4 °F 80% 29.72 in 10.0 mi Calm Calm - N/A   Clear
9:33 PM 24.8 °F - 19.4 °F 80% 29.72 in 10.0 mi Calm Calm - N/A   Clear
9:53 PM 24.8 °F - 21.2 °F 86% 29.71 in 10.0 mi Calm Calm - N/A   Clear
10:13 PM 24.8 °F - 21.2 °F 86% 29.73 in 10.0 mi Calm Calm - N/A   Clear
10:33 PM 24.8 °F 20.5 °F 21.2 °F 86% 29.71 in 10.0 mi NE 3.5 mph - N/A   Clear
10:53 PM 26.6 °F - 21.2 °F 80% 29.72 in 10.0 mi Calm Calm - N/A   Clear
11:13 PM 28.4 °F - 21.2 °F 74% 29.72 in 10.0 mi Calm Calm - N/A   Clear
11:33 PM 28.4 °F 24.6 °F 24.8 °F 86% 29.73 in 10.0 mi NE 3.5 mph - N/A   Clear
11:53 PM 28.4 °F 21.2 °F 24.8 °F 86% 29.73 in 10.0 mi NE 6.9 mph - N/A   Clear